GEFSNE_prec_meanprecacc_108.txt.gz
Total_Precipitation_Accumulation
0.21 0.21 0.23 0.21 0.21 0.22 0.27 0.39 0.54 0.40 0.14 0.11 0.19 0.20 0.20 0.23 0.28 0.32 0.30 0.31 0.37 0.40 0.43 0.50 0.59 0.67 0.77 1.01 1.50 2.15 2.67 3.00 2.91 2.53 2.14 1.96 2.13 2.42
0.29 0.29 0.29 0.28 0.28 0.27 0.27 0.30 0.41 0.55 0.37 0.11 0.16 0.22 0.26 0.27 0.31 0.31 0.31 0.34 0.35 0.39 0.41 0.44 0.50 0.57 0.67 0.80 0.98 1.40 2.00 2.47 2.80 2.90 2.73 2.48 2.36 2.51
0.34 0.37 0.38 0.38 0.38 0.36 0.35 0.35 0.37 0.49 0.50 0.17 0.10 0.17 0.28 0.33 0.33 0.30 0.28 0.28 0.26 0.31 0.39 0.43 0.47 0.51 0.56 0.67 0.79 0.99 1.43 1.90 2.30 2.73 2.99 2.91 2.70 2.57
0.39 0.43 0.44 0.44 0.46 0.45 0.46 0.44 0.42 0.44 0.52 0.33 0.14 0.14 0.23 0.31 0.36 0.35 0.29 0.26 0.24 0.26 0.35 0.43 0.47 0.51 0.53 0.57 0.64 0.79 1.05 1.50 1.85 2.13 2.52 2.72 2.68 2.71
0.37 0.42 0.47 0.52 0.56 0.54 0.54 0.52 0.47 0.41 0.42 0.41 0.23 0.17 0.21 0.28 0.33 0.37 0.35 0.32 0.28 0.28 0.31 0.39 0.48 0.51 0.53 0.55 0.58 0.63 0.72 0.94 1.34 1.79 2.20 2.54 2.58 2.54
0.37 0.40 0.46 0.55 0.62 0.67 0.71 0.63 0.54 0.53 0.49 0.45 0.32 0.24 0.23 0.27 0.37 0.42 0.41 0.40 0.39 0.34 0.32 0.33 0.41 0.48 0.48 0.47 0.47 0.53 0.61 0.79 1.09 1.48 1.81 2.19 2.41 2.39
0.41 0.42 0.46 0.57 0.72 0.87 0.95 0.87 0.79 0.74 0.63 0.56 0.45 0.35 0.32 0.37 0.44 0.45 0.48 0.44 0.46 0.47 0.42 0.34 0.33 0.34 0.38 0.43 0.47 0.49 0.57 0.67 0.80 1.06 1.43 1.74 2.08 2.31
0.46 0.42 0.40 0.45 0.52 0.63 0.80 0.83 0.85 0.85 0.82 0.74 0.66 0.56 0.44 0.42 0.46 0.57 0.64 0.62 0.56 0.46 0.41 0.38 0.38 0.40 0.37 0.38 0.46 0.48 0.50 0.55 0.64 0.80 1.01 1.29 1.57 1.95
0.38 0.33 0.32 0.32 0.33 0.34 0.41 0.46 0.54 0.65 0.78 0.86 0.88 0.75 0.61 0.53 0.60 0.71 0.75 0.73 0.60 0.54 0.52 0.55 0.49 0.46 0.43 0.47 0.55 0.50 0.51 0.54 0.57 0.62 0.77 0.99 1.21 1.50
0.30 0.31 0.33 0.31 0.30 0.33 0.38 0.39 0.38 0.42 0.59 0.76 0.88 0.81 0.74 0.70 0.75 0.85 0.92 0.95 0.82 0.72 0.70 0.77 0.67 0.57 0.52 0.51 0.58 0.54 0.50 0.51 0.54 0.59 0.65 0.76 0.95 1.19
0.27 0.37 0.41 0.36 0.33 0.37 0.48 0.46 0.35 0.31 0.36 0.58 0.76 0.77 0.75 0.85 0.97 1.14 1.24 1.28 1.22 1.05 0.94 0.97 0.90 0.74 0.66 0.60 0.60 0.64 0.61 0.56 0.55 0.58 0.63 0.68 0.77 0.98
0.26 0.36 0.53 0.49 0.41 0.39 0.46 0.43 0.36 0.28 0.26 0.29 0.37 0.47 0.54 0.61 0.81 1.09 1.21 1.20 1.22 1.24 1.12 1.07 1.06 0.95 0.90 0.76 0.62 0.55 0.57 0.65 0.66 0.65 0.69 0.73 0.79 0.83
0.30 0.38 0.51 0.46 0.41 0.37 0.38 0.37 0.35 0.32 0.29 0.26 0.26 0.28 0.36 0.48 0.62 0.87 1.06 1.10 1.12 1.14 1.07 1.09 1.15 1.06 0.94 0.84 0.70 0.61 0.52 0.50 0.53 0.64 0.74 0.82 0.88 0.88
0.32 0.31 0.37 0.35 0.34 0.32 0.30 0.31 0.30 0.30 0.32 0.27 0.22 0.20 0.22 0.31 0.45 0.62 0.85 0.96 1.01 1.03 0.98 1.00 1.09 1.04 0.92 0.76 0.68 0.70 0.65 0.58 0.51 0.52 0.59 0.83 0.97 1.00
0.34 0.45 0.37 0.27 0.23 0.20 0.19 0.22 0.24 0.26 0.30 0.26 0.18 0.13 0.14 0.20 0.29 0.42 0.58 0.75 0.85 0.90 0.92 0.91 0.94 0.99 0.99 0.83 0.62 0.63 0.72 0.75 0.66 0.57 0.58 0.65 0.76 0.87
0.25 0.31 0.28 0.19 0.14 0.11 0.10 0.12 0.15 0.20 0.24 0.22 0.15 0.10 0.10 0.14 0.21 0.32 0.46 0.60 0.75 0.83 0.87 0.92 0.98 1.08 1.12 0.94 0.75 0.66 0.67 0.79 0.80 0.68 0.62 0.62 0.67 0.71
0.32 0.27 0.22 0.19 0.17 0.14 0.10 0.07 0.08 0.13 0.17 0.17 0.15 0.14 0.14 0.15 0.18 0.25 0.40 0.53 0.68 0.77 0.85 0.99 1.10 1.19 1.26 1.23 1.10 0.89 0.75 0.74 0.80 0.79 0.70 0.71 0.76 0.75
0.33 0.29 0.20 0.15 0.14 0.12 0.10 0.08 0.07 0.08 0.10 0.13 0.15 0.16 0.16 0.17 0.19 0.22 0.34 0.47 0.58 0.65 0.75 0.91 1.11 1.31 1.50 1.57 1.38 1.11 0.90 0.83 0.91 0.96 0.84 0.76 0.80 0.77
0.26 0.21 0.15 0.12 0.11 0.10 0.09 0.08 0.07 0.06 0.08 0.12 0.14 0.15 0.17 0.20 0.22 0.25 0.31 0.42 0.52 0.61 0.70 0.81 1.01 1.28 1.44 1.50 1.54 1.31 1.03 0.89 0.97 1.14 1.08 0.84 0.73 0.70
0.16 0.15 0.12 0.10 0.10 0.10 0.09 0.09 0.08 0.08 0.10 0.11 0.12 0.13 0.17 0.23 0.25 0.26 0.31 0.43 0.52 0.61 0.71 0.82 1.00 1.16 1.27 1.15 1.18 1.35 1.25 1.04 1.00 1.15 1.18 0.98 0.87 0.93
0.11 0.11 0.11 0.12 0.12 0.11 0.10 0.09 0.09 0.09 0.09 0.10 0.11 0.12 0.15 0.22 0.26 0.25 0.29 0.40 0.56 0.66 0.73 0.80 0.96 1.13 1.25 1.26 1.27 1.35 1.40 1.35 1.17 1.11 1.07 1.00 0.98 1.02
0.13 0.13 0.12 0.12 0.13 0.12 0.11 0.10 0.10 0.09 0.09 0.10 0.11 0.13 0.15 0.22 0.25 0.26 0.31 0.41 0.52 0.61 0.69 0.77 0.90 1.15 1.43 1.51 1.45 1.37 1.40 1.45 1.52 1.44 1.27 1.00 0.86 0.84
0.17 0.15 0.13 0.13 0.13 0.13 0.12 0.11 0.10 0.09 0.08 0.10 0.12 0.14 0.17 0.23 0.24 0.28 0.33 0.40 0.49 0.56 0.63 0.76 0.94 1.17 1.41 1.45 1.43 1.38 1.29 1.26 1.33 1.43 1.60 1.42 1.01 0.74

GEFSNE_prec_meanprecacc_114.txt.gz
Total_Precipitation_Accumulation
0.21 0.21 0.23 0.21 0.21 0.23 0.27 0.39 0.54 0.41 0.14 0.11 0.19 0.20 0.20 0.23 0.28 0.32 0.30 0.31 0.37 0.40 0.43 0.50 0.59 0.67 0.77 1.01 1.50 2.16 2.68 3.02 2.94 2.58 2.22 2.07 2.25 2.53
0.29 0.29 0.29 0.29 0.28 0.27 0.28 0.30 0.42 0.56 0.37 0.11 0.16 0.22 0.26 0.27 0.31 0.31 0.31 0.34 0.35 0.39 0.41 0.44 0.50 0.58 0.67 0.81 0.98 1.41 2.01 2.48 2.82 2.93 2.78 2.55 2.46 2.61
0.34 0.37 0.38 0.38 0.38 0.36 0.35 0.35 0.38 0.50 0.51 0.17 0.10 0.17 0.28 0.33 0.33 0.30 0.28 0.28 0.26 0.31 0.39 0.43 0.47 0.51 0.57 0.67 0.80 1.00 1.44 1.91 2.32 2.75 3.02 2.96 2.77 2.66
0.39 0.43 0.44 0.44 0.46 0.46 0.46 0.45 0.42 0.45 0.53 0.35 0.14 0.15 0.23 0.31 0.36 0.35 0.29 0.26 0.24 0.26 0.35 0.43 0.47 0.51 0.53 0.57 0.65 0.80 1.06 1.52 1.87 2.15 2.55 2.75 2.73 2.79
0.37 0.42 0.47 0.53 0.57 0.55 0.55 0.53 0.48 0.42 0.43 0.43 0.25 0.18 0.21 0.28 0.33 0.37 0.35 0.32 0.28 0.28 0.31 0.39 0.48 0.51 0.54 0.56 0.59 0.64 0.73 0.96 1.36 1.81 2.23 2.58 2.62 2.59
0.37 0.41 0.47 0.55 0.63 0.68 0.72 0.64 0.55 0.55 0.51 0.47 0.34 0.25 0.24 0.28 0.38 0.42 0.41 0.40 0.39 0.34 0.32 0.33 0.41 0.48 0.49 0.49 0.49 0.54 0.63 0.81 1.11 1.52 1.85 2.22 2.45 2.43
0.41 0.43 0.47 0.58 0.74 0.89 0.98 0.91 0.82 0.78 0.68 0.61 0.49 0.38 0.34 0.38 0.45 0.46 0.48 0.45 0.47 0.47 0.42 0.34 0.33 0.34 0.39 0.45 0.48 0.52 0.60 0.70 0.83 1.10 1.47 1.79 2.12 2.35
0.47 0.43 0.41 0.46 0.54 0.67 0.85 0.89 0.92 0.94 0.92 0.85 0.76 0.64 0.49 0.44 0.49 0.60 0.67 0.65 0.58 0.47 0.42 0.38 0.39 0.40 0.37 0.39 0.46 0.49 0.52 0.58 0.68 0.84 1.06 1.34 1.63 2.00
0.39 0.34 0.33 0.33 0.35 0.35 0.44 0.50 0.57 0.70 0.85 0.95 1.00 0.84 0.67 0.59 0.67 0.79 0.82 0.78 0.63 0.56 0.54 0.56 0.49 0.47 0.43 0.47 0.55 0.50 0.52 0.57 0.61 0.68 0.84 1.06 1.28 1.56
0.30 0.32 0.34 0.32 0.31 0.35 0.41 0.42 0.40 0.44 0.61 0.80 0.94 0.86 0.78 0.75 0.81 0.93 1.00 1.03 0.88 0.75 0.73 0.80 0.68 0.57 0.52 0.51 0.58 0.55 0.51 0.53 0.57 0.63 0.71 0.83 1.02 1.26
0.27 0.37 0.41 0.38 0.35 0.41 0.52 0.49 0.37 0.33 0.38 0.61 0.81 0.81 0.80 0.92 1.05 1.26 1.38 1.42 1.33 1.09 0.96 1.00 0.91 0.75 0.67 0.60 0.60 0.64 0.62 0.57 0.57 0.62 0.69 0.74 0.84 1.05
0.27 0.37 0.55 0.51 0.44 0.43 0.50 0.48 0.40 0.31 0.28 0.32 0.40 0.50 0.57 0.65 0.87 1.18 1.32 1.35 1.35 1.32 1.15 1.09 1.08 0.98 0.94 0.77 0.62 0.55 0.58 0.66 0.67 0.68 0.73 0.79 0.85 0.89
0.32 0.40 0.52 0.48 0.44 0.41 0.43 0.42 0.39 0.36 0.33 0.30 0.29 0.31 0.38 0.50 0.65 0.90 1.10 1.18 1.22 1.23 1.11 1.11 1.18 1.10 0.98 0.86 0.70 0.61 0.53 0.50 0.54 0.65 0.76 0.86 0.93 0.95
0.34 0.32 0.39 0.38 0.37 0.36 0.33 0.35 0.34 0.36 0.38 0.33 0.27 0.23 0.25 0.34 0.46 0.64 0.88 1.00 1.06 1.08 1.02 1.04 1.14 1.08 0.95 0.79 0.69 0.71 0.65 0.58 0.51 0.52 0.60 0.85 1.00 1.05
0.36 0.47 0.39 0.30 0.25 0.22 0.21 0.24 0.27 0.29 0.34 0.30 0.22 0.16 0.16 0.22 0.31 0.45 0.61 0.80 0.90 0.95 0.98 0.97 1.00 1.03 1.03 0.88 0.65 0.64 0.72 0.75 0.66 0.57 0.58 0.66 0.78 0.89
0.26 0.32 0.30 0.20 0.15 0.12 0.10 0.13 0.16 0.22 0.26 0.25 0.18 0.12 0.12 0.16 0.24 0.34 0.49 0.64 0.81 0.89 0.91 0.96 1.02 1.13 1.19 0.99 0.79 0.68 0.68 0.79 0.80 0.69 0.62 0.63 0.68 0.72
0.35 0.30 0.24 0.20 0.18 0.15 0.11 0.08 0.09 0.14 0.19 0.19 0.18 0.17 0.16 0.18 0.21 0.27 0.43 0.57 0.73 0.81 0.88 1.02 1.14 1.24 1.32 1.28 1.16 0.92 0.77 0.75 0.80 0.79 0.71 0.72 0.76 0.76
0.36 0.32 0.22 0.17 0.15 0.14 0.12 0.10 0.08 0.09 0.11 0.15 0.17 0.18 0.19 0.20 0.21 0.25 0.37 0.51 0.62 0.68 0.78 0.93 1.15 1.41 1.61 1.66 1.42 1.14 0.91 0.84 0.92 0.96 0.85 0.77 0.81 0.78
0.28 0.22 0.16 0.13 0.12 0.11 0.10 0.10 0.08 0.07 0.09 0.13 0.16 0.17 0.20 0.23 0.25 0.28 0.34 0.45 0.55 0.63 0.73 0.84 1.05 1.34 1.51 1.54 1.56 1.32 1.05 0.90 0.99 1.15 1.09 0.84 0.73 0.70
0.17 0.16 0.13 0.11 0.11 0.11 0.10 0.10 0.09 0.09 0.11 0.13 0.14 0.15 0.19 0.26 0.29 0.29 0.34 0.45 0.55 0.64 0.74 0.86 1.03 1.19 1.29 1.16 1.20 1.35 1.25 1.04 1.01 1.17 1.18 0.98 0.88 0.94
0.12 0.12 0.12 0.13 0.13 0.12 0.11 0.10 0.11 0.11 0.10 0.12 0.13 0.14 0.18 0.25 0.29 0.27 0.32 0.42 0.59 0.70 0.77 0.82 0.97 1.13 1.27 1.30 1.33 1.38 1.40 1.35 1.17 1.11 1.08 1.01 0.99 1.03
0.14 0.14 0.13 0.13 0.14 0.13 0.13 0.12 0.12 0.11 0.10 0.12 0.13 0.15 0.18 0.24 0.28 0.29 0.34 0.44 0.54 0.63 0.71 0.79 0.91 1.17 1.48 1.57 1.48 1.38 1.40 1.46 1.54 1.45 1.27 1.01 0.87 0.84
0.19 0.17 0.14 0.13 0.14 0.14 0.14 0.13 0.12 0.11 0.10 0.12 0.14 0.16 0.20 0.26 0.27 0.31 0.36 0.42 0.51 0.58 0.65 0.79 0.97 1.20 1.44 1.47 1.45 1.39 1.30 1.27 1.35 1.46 1.63 1.43 1.02 0.75

GEFSNE_prec_meanprecacc_120.txt.gz
Total_Precipitation_Accumulation
0.21 0.21 0.23 0.21 0.21 0.23 0.28 0.40 0.55 0.42 0.15 0.11 0.19 0.20 0.20 0.23 0.29 0.32 0.30 0.31 0.37 0.41 0.43 0.51 0.60 0.68 0.78 1.02 1.51 2.17 2.69 3.03 2.96 2.61 2.28 2.17 2.40 2.73
0.29 0.29 0.29 0.29 0.28 0.27 0.28 0.31 0.43 0.57 0.38 0.12 0.16 0.22 0.26 0.27 0.31 0.31 0.31 0.34 0.35 0.39 0.42 0.45 0.51 0.59 0.68 0.82 0.99 1.42 2.02 2.49 2.83 2.94 2.81 2.61 2.55 2.75
0.35 0.37 0.38 0.38 0.38 0.36 0.36 0.36 0.38 0.51 0.52 0.17 0.10 0.17 0.28 0.33 0.33 0.30 0.29 0.28 0.26 0.31 0.40 0.43 0.48 0.52 0.58 0.69 0.81 1.02 1.45 1.93 2.34 2.77 3.04 3.00 2.82 2.74
0.39 0.43 0.44 0.44 0.46 0.46 0.47 0.45 0.43 0.45 0.54 0.36 0.15 0.15 0.24 0.32 0.36 0.35 0.29 0.26 0.24 0.26 0.35 0.43 0.48 0.52 0.54 0.59 0.66 0.81 1.08 1.54 1.89 2.17 2.57 2.78 2.77 2.85
0.37 0.42 0.47 0.53 0.57 0.55 0.55 0.54 0.48 0.43 0.44 0.44 0.26 0.18 0.22 0.28 0.34 0.37 0.35 0.32 0.28 0.28 0.31 0.40 0.49 0.52 0.55 0.57 0.60 0.66 0.75 0.98 1.38 1.83 2.25 2.60 2.65 2.64
0.37 0.41 0.47 0.56 0.63 0.69 0.73 0.64 0.56 0.56 0.53 0.50 0.36 0.27 0.25 0.28 0.39 0.43 0.42 0.40 0.39 0.34 0.32 0.34 0.41 0.48 0.50 0.50 0.50 0.56 0.64 0.83 1.13 1.54 1.87 2.25 2.47 2.45
0.42 0.43 0.47 0.59 0.76 0.91 1.00 0.93 0.85 0.82 0.72 0.66 0.55 0.42 0.37 0.40 0.47 0.47 0.50 0.46 0.47 0.47 0.42 0.34 0.33 0.34 0.39 0.45 0.49 0.52 0.61 0.71 0.85 1.12 1.49 1.82 2.15 2.37
0.48 0.43 0.41 0.47 0.55 0.68 0.87 0.92 0.95 0.98 0.96 0.90 0.81 0.69 0.53 0.47 0.52 0.63 0.71 0.69 0.61 0.48 0.42 0.39 0.39 0.41 0.37 0.39 0.46 0.49 0.52 0.59 0.70 0.86 1.09 1.37 1.66 2.04
0.39 0.35 0.33 0.33 0.36 0.36 0.45 0.50 0.58 0.72 0.88 0.99 1.04 0.88 0.69 0.61 0.70 0.83 0.86 0.82 0.66 0.57 0.55 0.58 0.49 0.47 0.43 0.47 0.55 0.50 0.53 0.58 0.63 0.70 0.86 1.08 1.31 1.61
0.30 0.32 0.34 0.32 0.31 0.35 0.42 0.43 0.40 0.45 0.62 0.82 0.96 0.87 0.79 0.76 0.83 0.97 1.04 1.07 0.91 0.76 0.74 0.83 0.69 0.58 0.52 0.51 0.58 0.55 0.52 0.54 0.59 0.65 0.73 0.86 1.05 1.31
0.28 0.37 0.42 0.38 0.36 0.43 0.55 0.51 0.39 0.34 0.39 0.63 0.83 0.85 0.84 0.97 1.11 1.34 1.49 1.54 1.43 1.13 0.97 1.02 0.92 0.76 0.67 0.60 0.60 0.64 0.62 0.58 0.58 0.64 0.71 0.77 0.88 1.09
0.27 0.37 0.55 0.52 0.46 0.46 0.53 0.51 0.43 0.32 0.29 0.33 0.41 0.52 0.59 0.66 0.90 1.22 1.39 1.44 1.45 1.38 1.16 1.10 1.09 0.99 0.96 0.77 0.62 0.55 0.58 0.66 0.68 0.69 0.75 0.82 0.89 0.94
0.33 0.41 0.53 0.50 0.46 0.44 0.46 0.45 0.43 0.39 0.36 0.34 0.32 0.33 0.40 0.52 0.66 0.92 1.13 1.23 1.31 1.30 1.13 1.13 1.20 1.12 1.01 0.87 0.70 0.61 0.53 0.50 0.54 0.65 0.77 0.88 0.97 1.01
0.36 0.33 0.39 0.39 0.40 0.40 0.37 0.38 0.38 0.40 0.40 0.35 0.29 0.25 0.27 0.35 0.48 0.65 0.89 1.02 1.09 1.12 1.05 1.09 1.20 1.12 1.00 0.83 0.71 0.71 0.65 0.58 0.51 0.52 0.60 0.85 1.01 1.09
0.37 0.49 0.42 0.33 0.29 0.24 0.22 0.26 0.29 0.30 0.35 0.32 0.24 0.17 0.17 0.23 0.32 0.46 0.63 0.81 0.92 0.97 1.00 1.00 1.05 1.08 1.09 0.93 0.67 0.65 0.73 0.75 0.66 0.58 0.58 0.66 0.78 0.90
0.28 0.34 0.32 0.23 0.17 0.13 0.11 0.13 0.17 0.23 0.28 0.27 0.19 0.14 0.13 0.18 0.25 0.36 0.51 0.66 0.84 0.91 0.92 0.98 1.05 1.18 1.25 1.04 0.82 0.70 0.68 0.80 0.80 0.69 0.62 0.63 0.68 0.72
0.39 0.34 0.26 0.21 0.19 0.15 0.11 0.08 0.09 0.15 0.20 0.21 0.19 0.18 0.17 0.19 0.22 0.28 0.45 0.60 0.77 0.83 0.90 1.03 1.16 1.27 1.37 1.32 1.20 0.95 0.78 0.76 0.81 0.79 0.71 0.72 0.77 0.76
0.41 0.36 0.24 0.18 0.16 0.14 0.13 0.10 0.09 0.10 0.12 0.16 0.19 0.19 0.20 0.21 0.23 0.26 0.39 0.54 0.65 0.70 0.79 0.94 1.18 1.46 1.67 1.70 1.45 1.16 0.93 0.85 0.92 0.97 0.85 0.78 0.81 0.78
0.30 0.24 0.17 0.14 0.13 0.12 0.11 0.11 0.09 0.07 0.10 0.15 0.17 0.19 0.22 0.25 0.27 0.30 0.36 0.47 0.58 0.65 0.74 0.85 1.08 1.39 1.56 1.57 1.56 1.33 1.05 0.91 0.99 1.16 1.09 0.85 0.74 0.70
0.18 0.17 0.15 0.12 0.12 0.12 0.12 0.11 0.10 0.10 0.12 0.14 0.16 0.17 0.21 0.28 0.31 0.31 0.35 0.47 0.57 0.66 0.76 0.88 1.05 1.21 1.31 1.17 1.20 1.36 1.26 1.05 1.02 1.18 1.19 0.99 0.88 0.94
0.13 0.13 0.13 0.14 0.15 0.14 0.12 0.11 0.12 0.12 0.11 0.13 0.15 0.16 0.19 0.28 0.31 0.29 0.33 0.44 0.61 0.72 0.78 0.83 0.97 1.14 1.29 1.33 1.36 1.39 1.41 1.35 1.18 1.12 1.08 1.03 1.01 1.05
0.15 0.16 0.14 0.14 0.16 0.15 0.14 0.13 0.13 0.12 0.12 0.13 0.15 0.16 0.19 0.26 0.30 0.30 0.36 0.46 0.56 0.65 0.72 0.79 0.92 1.20 1.52 1.60 1.50 1.38 1.40 1.46 1.54 1.46 1.28 1.02 0.88 0.85
0.20 0.19 0.16 0.15 0.15 0.15 0.16 0.15 0.14 0.12 0.11 0.14 0.16 0.17 0.21 0.27 0.29 0.33 0.38 0.45 0.54 0.60 0.67 0.80 0.99 1.23 1.47 1.48 1.46 1.40 1.31 1.28 1.36 1.48 1.64 1.44 1.02 0.75

GEFSNE_prec_meanprecacc_126.txt.gz
Total_Precipitation_Accumulation
0.21 0.21 0.23 0.21 0.21 0.23 0.28 0.40 0.56 0.43 0.15 0.11 0.19 0.20 0.20 0.23 0.29 0.32 0.30 0.31 0.38 0.41 0.44 0.51 0.61 0.69 0.79 1.03 1.52 2.18 2.70 3.05 2.97 2.62 2.29 2.19 2.42 2.76
0.29 0.29 0.29 0.29 0.28 0.27 0.28 0.31 0.43 0.58 0.39 0.12 0.16 0.23 0.26 0.27 0.31 0.31 0.31 0.34 0.35 0.40 0.43 0.46 0.52 0.60 0.70 0.83 1.01 1.44 2.04 2.51 2.85 2.97 2.83 2.63 2.57 2.78
0.35 0.37 0.38 0.38 0.38 0.36 0.36 0.36 0.38 0.51 0.53 0.18 0.10 0.17 0.28 0.33 0.33 0.30 0.29 0.28 0.26 0.32 0.40 0.44 0.49 0.53 0.59 0.70 0.83 1.03 1.48 1.96 2.37 2.81 3.08 3.03 2.86 2.77
0.39 0.43 0.44 0.44 0.46 0.46 0.47 0.45 0.43 0.46 0.55 0.36 0.15 0.15 0.24 0.32 0.36 0.35 0.29 0.26 0.24 0.26 0.35 0.44 0.49 0.53 0.56 0.61 0.68 0.83 1.10 1.56 1.91 2.20 2.60 2.81 2.81 2.89
0.37 0.42 0.47 0.53 0.57 0.55 0.55 0.54 0.49 0.43 0.45 0.44 0.26 0.18 0.22 0.28 0.34 0.37 0.35 0.32 0.28 0.28 0.31 0.40 0.50 0.54 0.56 0.59 0.62 0.68 0.77 1.00 1.40 1.86 2.27 2.62 2.67 2.66
0.37 0.41 0.47 0.56 0.63 0.69 0.73 0.65 0.57 0.57 0.54 0.51 0.38 0.28 0.26 0.29 0.40 0.44 0.43 0.41 0.40 0.34 0.32 0.34 0.42 0.49 0.51 0.51 0.52 0.58 0.66 0.85 1.16 1.56 1.89 2.27 2.49 2.47
0.42 0.44 0.48 0.59 0.76 0.92 1.02 0.95 0.87 0.85 0.76 0.70 0.58 0.45 0.38 0.42 0.48 0.49 0.52 0.47 0.48 0.47 0.42 0.34 0.34 0.35 0.39 0.45 0.50 0.54 0.62 0.72 0.86 1.14 1.51 1.84 2.17 2.39
0.48 0.43 0.41 0.47 0.56 0.69 0.89 0.94 0.98 1.02 1.00 0.94 0.85 0.73 0.55 0.49 0.53 0.65 0.73 0.71 0.62 0.48 0.43 0.39 0.39 0.41 0.37 0.39 0.46 0.50 0.53 0.60 0.71 0.87 1.10 1.38 1.68 2.06
0.39 0.35 0.33 0.33 0.36 0.36 0.45 0.51 0.59 0.73 0.90 1.02 1.09 0.91 0.71 0.62 0.71 0.85 0.89 0.84 0.67 0.57 0.56 0.59 0.50 0.47 0.43 0.48 0.55 0.51 0.53 0.59 0.64 0.71 0.87 1.10 1.33 1.63
0.30 0.33 0.34 0.32 0.31 0.36 0.42 0.43 0.41 0.45 0.63 0.83 0.97 0.88 0.80 0.78 0.86 1.02 1.11 1.15 0.96 0.78 0.76 0.86 0.70 0.58 0.52 0.51 0.58 0.55 0.52 0.55 0.60 0.66 0.75 0.88 1.08 1.33
0.28 0.37 0.42 0.38 0.36 0.45 0.57 0.54 0.40 0.34 0.40 0.64 0.86 0.88 0.88 1.02 1.17 1.42 1.59 1.64 1.50 1.15 0.98 1.05 0.94 0.76 0.67 0.60 0.61 0.64 0.63 0.59 0.60 0.65 0.73 0.79 0.90 1.12
0.27 0.37 0.56 0.53 0.48 0.50 0.56 0.54 0.47 0.34 0.31 0.35 0.43 0.54 0.61 0.68 0.92 1.25 1.43 1.50 1.51 1.42 1.17 1.12 1.10 1.01 0.98 0.77 0.62 0.56 0.58 0.66 0.69 0.70 0.77 0.83 0.92 0.96
0.34 0.41 0.54 0.51 0.48 0.47 0.50 0.49 0.48 0.44 0.41 0.39 0.36 0.35 0.41 0.52 0.66 0.92 1.14 1.26 1.35 1.34 1.15 1.16 1.24 1.15 1.05 0.89 0.70 0.61 0.53 0.50 0.54 0.65 0.78 0.89 0.98 1.03
0.38 0.34 0.40 0.41 0.43 0.44 0.41 0.42 0.43 0.45 0.45 0.38 0.30 0.26 0.27 0.36 0.48 0.66 0.90 1.04 1.12 1.15 1.07 1.13 1.27 1.17 1.05 0.87 0.73 0.71 0.65 0.58 0.51 0.52 0.60 0.85 1.01 1.10
0.39 0.51 0.44 0.36 0.32 0.27 0.25 0.29 0.31 0.33 0.37 0.33 0.24 0.17 0.17 0.24 0.33 0.47 0.63 0.82 0.94 0.98 1.01 1.03 1.10 1.13 1.14 0.99 0.70 0.66 0.74 0.76 0.66 0.58 0.58 0.66 0.78 0.90
0.30 0.36 0.34 0.25 0.18 0.14 0.12 0.14 0.18 0.24 0.29 0.29 0.21 0.14 0.14 0.18 0.26 0.37 0.52 0.68 0.86 0.92 0.93 0.99 1.07 1.22 1.30 1.08 0.85 0.73 0.70 0.81 0.81 0.69 0.62 0.63 0.68 0.72
0.43 0.39 0.30 0.23 0.20 0.16 0.11 0.09 0.10 0.15 0.21 0.22 0.21 0.20 0.18 0.20 0.23 0.29 0.46 0.62 0.79 0.84 0.90 1.04 1.17 1.29 1.40 1.35 1.24 0.97 0.79 0.77 0.81 0.80 0.72 0.73 0.77 0.76
0.45 0.40 0.26 0.19 0.17 0.15 0.13 0.11 0.09 0.11 0.13 0.17 0.20 0.21 0.22 0.23 0.24 0.27 0.41 0.57 0.67 0.72 0.80 0.95 1.20 1.49 1.70 1.73 1.47 1.18 0.95 0.86 0.93 0.98 0.86 0.79 0.82 0.78
0.32 0.26 0.18 0.15 0.13 0.13 0.12 0.12 0.10 0.08 0.11 0.16 0.19 0.20 0.23 0.27 0.28 0.31 0.38 0.49 0.60 0.66 0.75 0.87 1.11 1.42 1.59 1.59 1.57 1.33 1.07 0.92 1.00 1.17 1.10 0.86 0.74 0.71
0.18 0.18 0.15 0.13 0.13 0.13 0.13 0.12 0.12 0.11 0.13 0.15 0.17 0.19 0.23 0.31 0.33 0.32 0.37 0.49 0.59 0.67 0.78 0.89 1.07 1.23 1.33 1.19 1.21 1.36 1.26 1.06 1.03 1.18 1.19 1.00 0.89 0.95
0.13 0.14 0.13 0.15 0.16 0.15 0.13 0.13 0.13 0.13 0.13 0.15 0.16 0.17 0.21 0.30 0.33 0.30 0.35 0.45 0.63 0.74 0.80 0.84 0.98 1.16 1.32 1.37 1.39 1.40 1.41 1.36 1.18 1.12 1.09 1.04 1.02 1.05
0.15 0.16 0.14 0.15 0.17 0.16 0.15 0.15 0.15 0.14 0.13 0.15 0.17 0.18 0.21 0.29 0.33 0.32 0.38 0.47 0.58 0.66 0.73 0.80 0.93 1.22 1.55 1.63 1.51 1.39 1.41 1.47 1.55 1.47 1.29 1.03 0.89 0.86
0.21 0.20 0.17 0.15 0.16 0.17 0.17 0.17 0.16 0.14 0.13 0.15 0.18 0.19 0.23 0.29 0.30 0.35 0.40 0.46 0.55 0.62 0.68 0.81 1.00 1.25 1.49 1.50 1.47 1.41 1.32 1.29 1.38 1.49 1.65 1.45 1.03 0.76

GEFSNE_prec_meanprecacc_132.txt.gz
Total_Precipitation_Accumulation
0.21 0.21 0.23 0.21 0.21 0.23 0.28 0.40 0.56 0.43 0.15 0.11 0.19 0.20 0.20 0.23 0.29 0.32 0.30 0.31 0.38 0.41 0.44 0.52 0.62 0.70 0.81 1.05 1.54 2.20 2.73 3.07 2.99 2.64 2.31 2.21 2.45 2.78
0.29 0.29 0.29 0.29 0.28 0.27 0.28 0.31 0.43 0.58 0.39 0.12 0.16 0.23 0.27 0.27 0.31 0.32 0.31 0.34 0.35 0.40 0.43 0.47 0.54 0.62 0.72 0.86 1.04 1.47 2.07 2.55 2.88 3.00 2.87 2.67 2.61 2.82
0.35 0.37 0.38 0.38 0.38 0.36 0.36 0.36 0.38 0.52 0.54 0.18 0.10 0.17 0.28 0.33 0.33 0.30 0.29 0.28 0.26 0.32 0.40 0.45 0.50 0.55 0.61 0.72 0.86 1.06 1.51 1.99 2.41 2.85 3.12 3.08 2.90 2.82
0.39 0.43 0.44 0.44 0.46 0.46 0.47 0.45 0.43 0.46 0.56 0.37 0.15 0.15 0.24 0.32 0.37 0.36 0.29 0.26 0.24 0.26 0.36 0.45 0.51 0.55 0.58 0.63 0.71 0.86 1.13 1.59 1.94 2.23 2.64 2.86 2.87 2.95
0.37 0.42 0.47 0.53 0.57 0.55 0.56 0.54 0.49 0.43 0.45 0.46 0.27 0.19 0.22 0.29 0.34 0.38 0.35 0.32 0.28 0.28 0.31 0.41 0.51 0.55 0.58 0.62 0.65 0.71 0.80 1.03 1.43 1.89 2.30 2.66 2.71 2.70
0.37 0.41 0.47 0.56 0.64 0.69 0.74 0.65 0.57 0.58 0.55 0.53 0.40 0.29 0.27 0.30 0.41 0.45 0.44 0.41 0.40 0.34 0.33 0.34 0.43 0.51 0.53 0.54 0.55 0.61 0.69 0.88 1.18 1.59 1.93 2.30 2.51 2.50
0.42 0.44 0.48 0.60 0.77 0.93 1.03 0.96 0.89 0.88 0.79 0.74 0.62 0.47 0.40 0.43 0.50 0.50 0.54 0.48 0.48 0.48 0.43 0.35 0.34 0.35 0.39 0.46 0.51 0.55 0.63 0.74 0.88 1.16 1.54 1.87 2.20 2.42
0.48 0.43 0.41 0.47 0.56 0.70 0.90 0.96 1.00 1.05 1.05 0.99 0.91 0.78 0.57 0.51 0.55 0.67 0.75 0.74 0.64 0.48 0.43 0.40 0.39 0.41 0.38 0.39 0.47 0.50 0.54 0.62 0.73 0.89 1.13 1.41 1.71 2.09
0.39 0.35 0.33 0.33 0.36 0.36 0.45 0.52 0.60 0.74 0.93 1.06 1.13 0.94 0.73 0.64 0.74 0.89 0.92 0.88 0.70 0.59 0.58 0.61 0.51 0.48 0.44 0.48 0.55 0.51 0.54 0.61 0.66 0.74 0.90 1.13 1.36 1.65
0.31 0.33 0.34 0.32 0.31 0.36 0.43 0.44 0.42 0.46 0.64 0.85 0.99 0.90 0.82 0.80 0.90 1.07 1.18 1.23 1.02 0.81 0.78 0.89 0.72 0.59 0.52 0.51 0.58 0.56 0.54 0.57 0.62 0.69 0.78 0.91 1.11 1.36
0.28 0.38 0.42 0.39 0.37 0.46 0.59 0.56 0.42 0.35 0.41 0.66 0.89 0.92 0.93 1.08 1.24 1.52 1.72 1.76 1.57 1.17 1.00 1.07 0.95 0.77 0.68 0.61 0.61 0.65 0.63 0.61 0.62 0.68 0.76 0.83 0.94 1.16
0.27 0.37 0.56 0.54 0.50 0.52 0.59 0.58 0.51 0.36 0.32 0.37 0.46 0.56 0.63 0.70 0.94 1.28 1.48 1.57 1.56 1.45 1.18 1.13 1.11 1.03 1.01 0.78 0.62 0.56 0.58 0.67 0.70 0.72 0.79 0.86 0.94 1.00
0.35 0.42 0.54 0.52 0.50 0.50 0.54 0.53 0.52 0.48 0.45 0.44 0.40 0.38 0.43 0.53 0.67 0.93 1.16 1.30 1.41 1.38 1.17 1.19 1.27 1.18 1.09 0.91 0.71 0.61 0.53 0.51 0.55 0.66 0.78 0.90 1.00 1.05
0.39 0.35 0.41 0.42 0.45 0.47 0.45 0.46 0.47 0.49 0.49 0.42 0.33 0.28 0.28 0.37 0.49 0.67 0.91 1.05 1.14 1.18 1.09 1.16 1.33 1.21 1.09 0.91 0.74 0.72 0.65 0.59 0.52 0.53 0.60 0.86 1.02 1.11
0.40 0.52 0.45 0.38 0.35 0.29 0.26 0.30 0.33 0.34 0.39 0.35 0.26 0.18 0.18 0.24 0.34 0.48 0.64 0.83 0.94 0.99 1.02 1.04 1.14 1.17 1.19 1.03 0.73 0.67 0.75 0.76 0.67 0.59 0.59 0.67 0.78 0.91
0.31 0.37 0.36 0.27 0.20 0.15 0.13 0.15 0.18 0.24 0.30 0.31 0.22 0.16 0.15 0.19 0.27 0.38 0.54 0.69 0.88 0.93 0.93 1.00 1.09 1.25 1.35 1.11 0.88 0.75 0.71 0.82 0.82 0.70 0.63 0.64 0.69 0.72
0.47 0.44 0.34 0.26 0.22 0.17 0.12 0.10 0.10 0.16 0.22 0.23 0.22 0.21 0.19 0.21 0.23 0.30 0.48 0.64 0.81 0.86 0.91 1.05 1.18 1.32 1.43 1.39 1.27 0.99 0.81 0.79 0.83 0.81 0.73 0.74 0.78 0.77
0.50 0.46 0.30 0.21 0.19 0.16 0.14 0.12 0.10 0.11 0.14 0.18 0.21 0.22 0.23 0.24 0.25 0.28 0.42 0.59 0.69 0.73 0.82 0.96 1.22 1.52 1.73 1.75 1.48 1.20 0.97 0.88 0.95 0.99 0.88 0.81 0.83 0.79
0.36 0.28 0.20 0.16 0.15 0.14 0.13 0.13 0.11 0.09 0.12 0.17 0.20 0.21 0.25 0.28 0.30 0.33 0.39 0.51 0.61 0.67 0.76 0.89 1.13 1.46 1.62 1.61 1.58 1.34 1.08 0.93 1.02 1.19 1.12 0.87 0.75 0.71
0.19 0.19 0.16 0.14 0.14 0.14 0.14 0.13 0.12 0.12 0.14 0.16 0.19 0.20 0.25 0.33 0.35 0.34 0.38 0.50 0.60 0.69 0.79 0.90 1.09 1.26 1.37 1.21 1.23 1.37 1.27 1.07 1.05 1.20 1.21 1.01 0.90 0.95
0.14 0.14 0.14 0.16 0.17 0.16 0.14 0.14 0.14 0.14 0.14 0.16 0.18 0.19 0.23 0.33 0.36 0.32 0.36 0.47 0.65 0.76 0.81 0.85 0.99 1.18 1.34 1.40 1.41 1.41 1.42 1.37 1.19 1.13 1.10 1.05 1.03 1.06
0.16 0.17 0.15 0.16 0.18 0.17 0.17 0.16 0.16 0.15 0.14 0.16 0.18 0.19 0.23 0.31 0.35 0.34 0.39 0.49 0.60 0.68 0.74 0.81 0.94 1.24 1.58 1.66 1.53 1.40 1.42 1.48 1.56 1.48 1.30 1.04 0.90 0.86
0.22 0.21 0.18 0.17 0.17 0.18 0.19 0.18 0.18 0.15 0.14 0.17 0.19 0.21 0.25 0.31 0.32 0.37 0.41 0.48 0.57 0.63 0.69 0.83 1.01 1.27 1.51 1.52 1.49 1.43 1.33 1.31 1.39 1.51 1.67 1.46 1.04 0.76

GEFSNE_prec_meanprecacc_138.txt.gz
Total_Precipitation_Accumulation
0.21 0.21 0.23 0.21 0.21 0.23 0.28 0.40 0.56 0.43 0.15 0.11 0.19 0.20 0.20 0.23 0.29 0.32 0.30 0.31 0.38 0.42 0.45 0.53 0.63 0.71 0.82 1.07 1.56 2.23 2.75 3.09 3.02 2.67 2.34 2.24 2.48 2.82
0.29 0.29 0.29 0.29 0.28 0.27 0.28 0.31 0.43 0.58 0.40 0.12 0.16 0.23 0.27 0.27 0.31 0.32 0.31 0.34 0.35 0.40 0.43 0.47 0.54 0.63 0.74 0.88 1.06 1.49 2.10 2.57 2.91 3.03 2.90 2.71 2.65 2.86
0.35 0.37 0.38 0.38 0.38 0.36 0.36 0.36 0.38 0.52 0.54 0.18 0.10 0.17 0.28 0.33 0.33 0.30 0.29 0.28 0.26 0.32 0.41 0.45 0.51 0.56 0.62 0.74 0.88 1.09 1.54 2.03 2.44 2.89 3.17 3.13 2.95 2.87
0.39 0.43 0.44 0.44 0.46 0.46 0.47 0.45 0.43 0.46 0.56 0.37 0.15 0.16 0.24 0.32 0.37 0.36 0.29 0.26 0.24 0.26 0.36 0.46 0.52 0.56 0.60 0.65 0.73 0.88 1.16 1.62 1.98 2.27 2.68 2.91 2.92 3.01
0.37 0.42 0.47 0.53 0.57 0.55 0.56 0.54 0.49 0.43 0.46 0.46 0.27 0.19 0.23 0.29 0.35 0.38 0.35 0.32 0.28 0.28 0.32 0.42 0.51 0.56 0.60 0.64 0.68 0.73 0.83 1.06 1.46 1.92 2.34 2.69 2.75 2.75
0.37 0.41 0.47 0.56 0.64 0.70 0.74 0.65 0.57 0.58 0.56 0.54 0.41 0.30 0.27 0.30 0.41 0.46 0.45 0.42 0.41 0.35 0.33 0.35 0.43 0.52 0.54 0.55 0.57 0.63 0.72 0.90 1.21 1.62 1.96 2.33 2.55 2.53
0.42 0.44 0.48 0.60 0.77 0.93 1.04 0.97 0.90 0.90 0.82 0.77 0.64 0.49 0.41 0.44 0.52 0.52 0.55 0.49 0.49 0.48 0.43 0.35 0.34 0.35 0.40 0.46 0.52 0.56 0.64 0.75 0.91 1.19 1.57 1.91 2.23 2.46
0.48 0.44 0.42 0.47 0.56 0.70 0.91 0.97 1.02 1.08 1.09 1.03 0.94 0.81 0.59 0.52 0.57 0.69 0.78 0.77 0.66 0.49 0.44 0.40 0.40 0.42 0.38 0.39 0.47 0.51 0.56 0.64 0.76 0.93 1.17 1.46 1.75 2.13
0.39 0.35 0.33 0.33 0.36 0.37 0.46 0.52 0.61 0.75 0.94 1.08 1.16 0.96 0.75 0.65 0.75 0.91 0.94 0.91 0.73 0.60 0.61 0.63 0.51 0.48 0.44 0.48 0.56 0.53 0.56 0.64 0.70 0.78 0.94 1.17 1.40 1.70
0.31 0.33 0.34 0.32 0.31 0.36 0.43 0.45 0.42 0.46 0.64 0.86 1.01 0.91 0.83 0.81 0.92 1.11 1.23 1.28 1.05 0.82 0.80 0.93 0.73 0.60 0.53 0.51 0.59 0.57 0.56 0.59 0.65 0.73 0.81 0.95 1.16 1.41
0.28 0.38 0.42 0.39 0.37 0.47 0.60 0.58 0.44 0.36 0.42 0.68 0.92 0.95 0.97 1.12 1.29 1.58 1.79 1.84 1.63 1.20 1.01 1.10 0.96 0.78 0.68 0.61 0.61 0.66 0.65 0.62 0.64 0.71 0.80 0.88 0.99 1.21
0.27 0.38 0.56 0.54 0.51 0.54 0.61 0.60 0.54 0.38 0.34 0.38 0.48 0.58 0.65 0.71 0.96 1.31 1.51 1.63 1.62 1.49 1.19 1.15 1.13 1.05 1.03 0.79 0.63 0.56 0.59 0.68 0.71 0.74 0.82 0.89 0.98 1.03
0.36 0.43 0.55 0.53 0.51 0.51 0.56 0.56 0.55 0.51 0.49 0.48 0.44 0.40 0.44 0.54 0.68 0.94 1.17 1.33 1.45 1.42 1.18 1.22 1.30 1.20 1.12 0.93 0.71 0.62 0.54 0.52 0.56 0.67 0.80 0.92 1.02 1.08
0.40 0.35 0.41 0.43 0.47 0.49 0.48 0.49 0.50 0.54 0.52 0.45 0.36 0.30 0.30 0.38 0.50 0.67 0.92 1.06 1.16 1.20 1.10 1.19 1.38 1.25 1.13 0.94 0.76 0.72 0.66 0.60 0.53 0.54 0.62 0.87 1.04 1.13
0.41 0.53 0.47 0.39 0.37 0.31 0.28 0.33 0.36 0.37 0.41 0.38 0.28 0.20 0.19 0.25 0.35 0.49 0.65 0.84 0.95 1.00 1.03 1.06 1.16 1.21 1.23 1.07 0.75 0.69 0.76 0.77 0.67 0.60 0.61 0.68 0.80 0.93
0.32 0.39 0.38 0.28 0.21 0.16 0.14 0.16 0.19 0.25 0.32 0.33 0.24 0.17 0.16 0.20 0.28 0.39 0.55 0.70 0.89 0.94 0.94 1.01 1.10 1.28 1.39 1.14 0.91 0.77 0.73 0.85 0.83 0.71 0.64 0.65 0.70 0.74
0.50 0.47 0.37 0.28 0.23 0.18 0.14 0.11 0.12 0.17 0.24 0.25 0.24 0.22 0.21 0.22 0.24 0.31 0.49 0.65 0.83 0.87 0.92 1.05 1.19 1.33 1.45 1.41 1.30 1.01 0.83 0.81 0.85 0.83 0.75 0.76 0.79 0.78
0.53 0.49 0.33 0.24 0.21 0.19 0.17 0.14 0.12 0.13 0.15 0.20 0.23 0.23 0.24 0.25 0.26 0.29 0.43 0.60 0.71 0.74 0.83 0.98 1.24 1.55 1.75 1.76 1.50 1.22 0.99 0.91 0.97 1.01 0.90 0.83 0.85 0.80
0.38 0.30 0.21 0.18 0.17 0.16 0.16 0.16 0.13 0.10 0.13 0.19 0.22 0.23 0.26 0.29 0.31 0.34 0.40 0.53 0.63 0.69 0.77 0.90 1.15 1.49 1.66 1.63 1.59 1.36 1.11 0.96 1.04 1.21 1.13 0.88 0.77 0.72
0.20 0.20 0.17 0.15 0.16 0.16 0.16 0.15 0.14 0.13 0.15 0.18 0.20 0.21 0.26 0.35 0.37 0.35 0.39 0.52 0.62 0.70 0.80 0.92 1.11 1.29 1.40 1.25 1.26 1.38 1.28 1.09 1.07 1.22 1.22 1.02 0.91 0.96
0.14 0.15 0.15 0.17 0.18 0.18 0.16 0.15 0.16 0.16 0.15 0.17 0.19 0.20 0.24 0.35 0.38 0.33 0.37 0.48 0.67 0.79 0.83 0.86 1.00 1.19 1.36 1.43 1.43 1.42 1.43 1.38 1.20 1.15 1.11 1.06 1.05 1.08
0.17 0.18 0.16 0.17 0.19 0.19 0.19 0.18 0.18 0.16 0.15 0.18 0.19 0.20 0.24 0.33 0.37 0.35 0.41 0.51 0.61 0.70 0.75 0.82 0.95 1.25 1.60 1.69 1.55 1.42 1.43 1.50 1.57 1.49 1.31 1.05 0.92 0.89
0.23 0.22 0.19 0.18 0.19 0.20 0.21 0.20 0.19 0.17 0.15 0.18 0.21 0.22 0.26 0.33 0.34 0.38 0.43 0.50 0.59 0.65 0.71 0.84 1.03 1.29 1.53 1.54 1.51 1.44 1.34 1.32 1.41 1.52 1.68 1.47 1.05 0.77

GEFSNE_prec_meanprecacc_144.txt.gz
Total_Precipitation_Accumulation
0.21 0.21 0.23 0.21 0.21 0.23 0.28 0.40 0.56 0.43 0.15 0.11 0.19 0.20 0.20 0.23 0.29 0.32 0.30 0.31 0.38 0.42 0.45 0.53 0.63 0.72 0.83 1.08 1.58 2.25 2.77 3.12 3.04 2.69 2.37 2.27 2.51 2.85
0.29 0.29 0.29 0.29 0.28 0.27 0.28 0.31 0.43 0.58 0.40 0.12 0.16 0.23 0.27 0.27 0.31 0.32 0.31 0.34 0.35 0.40 0.43 0.47 0.55 0.64 0.75 0.89 1.08 1.51 2.12 2.60 2.95 3.07 2.94 2.75 2.70 2.91
0.35 0.37 0.38 0.38 0.38 0.36 0.36 0.36 0.38 0.52 0.54 0.18 0.10 0.17 0.28 0.33 0.33 0.30 0.29 0.28 0.26 0.32 0.41 0.46 0.52 0.57 0.64 0.76 0.90 1.12 1.57 2.06 2.48 2.92 3.21 3.17 3.00 2.92
0.39 0.43 0.44 0.44 0.46 0.46 0.47 0.45 0.43 0.46 0.56 0.38 0.15 0.16 0.24 0.32 0.37 0.36 0.29 0.26 0.24 0.26 0.36 0.46 0.53 0.58 0.61 0.67 0.75 0.91 1.18 1.64 2.00 2.30 2.71 2.95 2.96 3.06
0.37 0.42 0.47 0.53 0.57 0.55 0.56 0.54 0.49 0.43 0.46 0.47 0.28 0.19 0.23 0.29 0.35 0.38 0.35 0.32 0.28 0.28 0.32 0.42 0.52 0.57 0.61 0.65 0.70 0.76 0.85 1.08 1.49 1.95 2.37 2.72 2.79 2.79
0.37 0.41 0.47 0.56 0.64 0.70 0.74 0.65 0.58 0.58 0.56 0.54 0.41 0.30 0.28 0.30 0.41 0.46 0.45 0.42 0.41 0.35 0.33 0.35 0.44 0.52 0.55 0.56 0.58 0.64 0.73 0.92 1.23 1.65 1.99 2.36 2.58 2.56
0.42 0.44 0.48 0.60 0.77 0.94 1.04 0.98 0.91 0.91 0.83 0.78 0.65 0.50 0.42 0.45 0.52 0.52 0.56 0.50 0.49 0.48 0.43 0.35 0.34 0.35 0.40 0.47 0.52 0.56 0.65 0.76 0.93 1.22 1.61 1.95 2.27 2.49
0.48 0.44 0.42 0.48 0.56 0.70 0.91 0.97 1.02 1.09 1.10 1.05 0.96 0.82 0.60 0.52 0.57 0.70 0.79 0.78 0.67 0.50 0.45 0.41 0.40 0.42 0.38 0.39 0.47 0.52 0.57 0.66 0.79 0.97 1.21 1.50 1.80 2.18
0.40 0.35 0.34 0.33 0.36 0.37 0.46 0.52 0.61 0.75 0.95 1.09 1.18 0.97 0.75 0.66 0.76 0.92 0.96 0.93 0.75 0.62 0.63 0.65 0.51 0.48 0.44 0.48 0.56 0.53 0.58 0.66 0.72 0.81 0.99 1.22 1.45 1.74
0.31 0.33 0.34 0.32 0.31 0.37 0.44 0.45 0.42 0.46 0.65 0.87 1.01 0.92 0.84 0.82 0.94 1.14 1.28 1.34 1.09 0.84 0.82 0.94 0.73 0.60 0.53 0.51 0.59 0.57 0.57 0.61 0.67 0.75 0.85 0.99 1.19 1.44
0.28 0.38 0.42 0.39 0.37 0.48 0.61 0.59 0.44 0.37 0.42 0.69 0.93 0.97 1.00 1.16 1.34 1.64 1.86 1.91 1.68 1.21 1.02 1.11 0.97 0.78 0.68 0.61 0.61 0.66 0.65 0.63 0.65 0.73 0.82 0.90 1.02 1.24
0.27 0.38 0.56 0.55 0.51 0.55 0.62 0.62 0.56 0.38 0.34 0.39 0.48 0.59 0.66 0.73 0.99 1.34 1.54 1.68 1.67 1.51 1.20 1.15 1.14 1.06 1.05 0.79 0.63 0.56 0.59 0.68 0.72 0.75 0.83 0.91 1.00 1.06
0.36 0.43 0.55 0.53 0.52 0.52 0.58 0.58 0.57 0.53 0.51 0.50 0.46 0.42 0.45 0.56 0.70 0.96 1.18 1.35 1.49 1.44 1.19 1.24 1.33 1.22 1.14 0.94 0.71 0.62 0.54 0.52 0.56 0.68 0.81 0.93 1.05 1.11
0.40 0.36 0.42 0.44 0.48 0.51 0.49 0.50 0.53 0.56 0.55 0.47 0.39 0.32 0.32 0.39 0.51 0.68 0.93 1.07 1.17 1.21 1.11 1.21 1.41 1.27 1.16 0.96 0.76 0.72 0.66 0.60 0.53 0.55 0.62 0.88 1.05 1.16
0.41 0.53 0.47 0.41 0.38 0.32 0.29 0.34 0.37 0.38 0.43 0.39 0.30 0.21 0.21 0.26 0.36 0.50 0.66 0.84 0.96 1.00 1.03 1.07 1.19 1.23 1.27 1.11 0.77 0.69 0.76 0.77 0.67 0.60 0.62 0.69 0.81 0.94
0.33 0.39 0.39 0.29 0.21 0.16 0.14 0.16 0.19 0.26 0.33 0.36 0.27 0.19 0.17 0.21 0.29 0.40 0.56 0.71 0.90 0.94 0.94 1.02 1.11 1.29 1.40 1.15 0.93 0.78 0.74 0.86 0.84 0.72 0.66 0.66 0.71 0.75
0.51 0.49 0.38 0.28 0.24 0.19 0.14 0.11 0.12 0.18 0.25 0.26 0.25 0.24 0.22 0.23 0.25 0.32 0.50 0.66 0.84 0.88 0.93 1.06 1.20 1.34 1.46 1.42 1.32 1.02 0.84 0.82 0.86 0.85 0.77 0.77 0.80 0.79
0.55 0.51 0.33 0.24 0.22 0.19 0.17 0.15 0.13 0.14 0.17 0.21 0.24 0.25 0.25 0.26 0.27 0.30 0.44 0.61 0.72 0.75 0.83 0.98 1.25 1.56 1.77 1.77 1.51 1.23 1.01 0.92 0.99 1.03 0.92 0.85 0.86 0.82
0.39 0.31 0.22 0.18 0.17 0.16 0.16 0.16 0.14 0.11 0.14 0.20 0.23 0.24 0.27 0.31 0.32 0.35 0.41 0.54 0.64 0.69 0.78 0.91 1.17 1.52 1.68 1.64 1.59 1.37 1.13 0.98 1.06 1.22 1.15 0.90 0.79 0.74
0.20 0.20 0.18 0.15 0.16 0.16 0.16 0.16 0.15 0.14 0.17 0.20 0.22 0.23 0.28 0.36 0.38 0.36 0.40 0.53 0.63 0.71 0.80 0.92 1.12 1.31 1.43 1.27 1.27 1.39 1.29 1.11 1.08 1.23 1.23 1.03 0.92 0.97
0.15 0.15 0.15 0.18 0.19 0.18 0.17 0.17 0.18 0.18 0.17 0.19 0.20 0.21 0.25 0.36 0.39 0.34 0.38 0.49 0.68 0.80 0.84 0.87 1.01 1.20 1.39 1.45 1.45 1.43 1.44 1.39 1.22 1.17 1.13 1.08 1.06 1.09
0.18 0.19 0.17 0.17 0.20 0.20 0.21 0.20 0.20 0.17 0.16 0.19 0.20 0.21 0.25 0.34 0.38 0.36 0.42 0.52 0.62 0.71 0.76 0.82 0.96 1.26 1.62 1.71 1.57 1.42 1.44 1.50 1.58 1.50 1.32 1.07 0.94 0.91
0.24 0.23 0.20 0.18 0.19 0.21 0.23 0.21 0.20 0.18 0.16 0.19 0.22 0.23 0.27 0.34 0.35 0.39 0.44 0.51 0.60 0.65 0.72 0.85 1.04 1.30 1.54 1.55 1.52 1.45 1.35 1.33 1.42 1.53 1.69 1.48 1.06 0.79

GEFSNE_prec_meanprecacc_150.txt.gz
Total_Precipitation_Accumulation
0.22 0.22 0.24 0.22 0.22 0.23 0.28 0.40 0.56 0.43 0.15 0.11 0.19 0.20 0.20 0.23 0.29 0.32 0.30 0.31 0.38 0.42 0.45 0.53 0.64 0.72 0.84 1.09 1.59 2.26 2.79 3.14 3.06 2.72 2.40 2.31 2.55 2.90
0.30 0.30 0.29 0.29 0.28 0.27 0.28 0.31 0.43 0.58 0.40 0.12 0.16 0.23 0.27 0.27 0.31 0.32 0.31 0.34 0.35 0.40 0.44 0.48 0.56 0.64 0.76 0.91 1.09 1.53 2.15 2.63 2.98 3.10 2.98 2.79 2.75 2.96
0.35 0.37 0.38 0.38 0.38 0.36 0.36 0.36 0.39 0.52 0.54 0.18 0.10 0.17 0.28 0.33 0.33 0.30 0.29 0.28 0.26 0.32 0.41 0.46 0.52 0.58 0.65 0.77 0.91 1.14 1.60 2.09 2.51 2.96 3.24 3.21 3.04 2.96
0.40 0.43 0.45 0.44 0.47 0.46 0.47 0.45 0.43 0.46 0.57 0.38 0.15 0.16 0.24 0.32 0.37 0.36 0.29 0.26 0.24 0.26 0.36 0.47 0.53 0.58 0.62 0.68 0.77 0.93 1.20 1.67 2.03 2.33 2.74 2.98 3.00 3.10
0.37 0.43 0.47 0.53 0.57 0.55 0.56 0.54 0.49 0.44 0.46 0.47 0.28 0.19 0.23 0.29 0.35 0.38 0.35 0.32 0.28 0.28 0.32 0.42 0.52 0.57 0.62 0.67 0.72 0.78 0.87 1.10 1.51 1.97 2.39 2.75 2.82 2.82
0.37 0.41 0.47 0.56 0.64 0.70 0.74 0.66 0.58 0.59 0.57 0.55 0.42 0.30 0.28 0.30 0.41 0.46 0.45 0.42 0.41 0.35 0.33 0.35 0.44 0.53 0.56 0.57 0.59 0.65 0.74 0.93 1.25 1.67 2.01 2.39 2.61 2.59
0.42 0.44 0.48 0.60 0.77 0.94 1.05 0.98 0.92 0.91 0.84 0.79 0.66 0.50 0.42 0.45 0.52 0.52 0.56 0.50 0.49 0.48 0.43 0.35 0.34 0.36 0.40 0.47 0.52 0.57 0.66 0.77 0.94 1.24 1.64 1.98 2.31 2.53
0.48 0.44 0.42 0.48 0.57 0.71 0.92 0.97 1.03 1.09 1.11 1.06 0.97 0.82 0.60 0.53 0.57 0.70 0.79 0.79 0.68 0.50 0.45 0.41 0.40 0.42 0.38 0.40 0.48 0.52 0.57 0.66 0.80 0.99 1.24 1.53 1.82 2.21
0.40 0.35 0.34 0.34 0.37 0.37 0.46 0.52 0.61 0.75 0.95 1.10 1.19 0.98 0.76 0.66 0.77 0.93 0.97 0.95 0.77 0.62 0.64 0.66 0.52 0.49 0.45 0.48 0.56 0.53 0.58 0.67 0.74 0.83 1.01 1.24 1.48 1.78
0.31 0.33 0.35 0.33 0.31 0.37 0.44 0.45 0.43 0.47 0.65 0.87 1.02 0.92 0.84 0.83 0.95 1.17 1.32 1.38 1.11 0.85 0.82 0.97 0.74 0.61 0.53 0.51 0.59 0.58 0.57 0.61 0.68 0.77 0.87 1.01 1.22 1.47
0.28 0.38 0.42 0.39 0.37 0.48 0.62 0.60 0.45 0.37 0.42 0.69 0.94 0.99 1.01 1.18 1.37 1.67 1.91 1.96 1.72 1.22 1.03 1.12 0.97 0.78 0.68 0.61 0.61 0.66 0.65 0.63 0.66 0.74 0.83 0.92 1.04 1.27
0.28 0.38 0.56 0.55 0.52 0.55 0.63 0.63 0.57 0.39 0.35 0.40 0.49 0.60 0.67 0.73 1.00 1.36 1.57 1.71 1.70 1.53 1.20 1.16 1.14 1.06 1.06 0.79 0.63 0.56 0.59 0.68 0.72 0.76 0.84 0.92 1.02 1.08
0.36 0.43 0.55 0.53 0.53 0.53 0.59 0.59 0.58 0.55 0.53 0.52 0.47 0.42 0.45 0.56 0.70 0.96 1.19 1.37 1.52 1.47 1.20 1.25 1.34 1.23 1.16 0.95 0.71 0.62 0.54 0.52 0.56 0.68 0.81 0.94 1.06 1.13
0.40 0.36 0.42 0.44 0.49 0.52 0.50 0.51 0.54 0.58 0.56 0.48 0.39 0.32 0.32 0.39 0.51 0.69 0.93 1.08 1.19 1.23 1.12 1.23 1.44 1.29 1.18 0.97 0.76 0.72 0.66 0.60 0.53 0.55 0.62 0.88 1.06 1.17
0.41 0.54 0.48 0.41 0.39 0.33 0.29 0.35 0.38 0.38 0.43 0.40 0.30 0.22 0.21 0.27 0.36 0.50 0.66 0.85 0.97 1.01 1.04 1.08 1.21 1.25 1.29 1.13 0.78 0.69 0.77 0.77 0.68 0.60 0.62 0.70 0.82 0.96
0.33 0.40 0.39 0.30 0.22 0.17 0.15 0.17 0.20 0.26 0.34 0.36 0.27 0.19 0.17 0.22 0.30 0.41 0.57 0.72 0.91 0.95 0.95 1.02 1.12 1.32 1.43 1.17 0.94 0.79 0.75 0.87 0.84 0.72 0.66 0.67 0.72 0.76
0.53 0.51 0.40 0.29 0.24 0.19 0.14 0.11 0.12 0.18 0.25 0.27 0.26 0.24 0.23 0.24 0.26 0.33 0.51 0.67 0.85 0.88 0.93 1.06 1.21 1.35 1.47 1.44 1.33 1.03 0.85 0.83 0.87 0.86 0.78 0.78 0.81 0.80
0.57 0.53 0.35 0.25 0.22 0.20 0.17 0.15 0.13 0.14 0.17 0.21 0.25 0.25 0.26 0.27 0.28 0.31 0.45 0.62 0.73 0.76 0.84 0.99 1.25 1.57 1.78 1.78 1.52 1.24 1.01 0.93 0.99 1.03 0.93 0.86 0.87 0.83
0.40 0.32 0.22 0.19 0.18 0.17 0.16 0.17 0.14 0.11 0.14 0.21 0.24 0.25 0.28 0.32 0.34 0.36 0.42 0.55 0.64 0.70 0.78 0.91 1.17 1.53 1.70 1.65 1.60 1.37 1.14 0.99 1.07 1.23 1.16 0.91 0.80 0.76
0.20 0.21 0.18 0.16 0.16 0.17 0.16 0.16 0.15 0.14 0.17 0.21 0.23 0.24 0.29 0.37 0.40 0.38 0.41 0.54 0.64 0.72 0.81 0.93 1.13 1.32 1.45 1.28 1.28 1.39 1.30 1.13 1.10 1.25 1.24 1.04 0.93 0.98
0.15 0.15 0.16 0.18 0.19 0.19 0.17 0.17 0.18 0.18 0.17 0.20 0.21 0.22 0.26 0.37 0.40 0.35 0.39 0.50 0.70 0.81 0.84 0.87 1.01 1.21 1.41 1.47 1.47 1.43 1.45 1.40 1.23 1.19 1.15 1.09 1.07 1.10
0.18 0.19 0.17 0.18 0.20 0.21 0.21 0.20 0.20 0.18 0.17 0.19 0.21 0.22 0.26 0.35 0.39 0.37 0.43 0.53 0.63 0.71 0.77 0.83 0.96 1.27 1.64 1.73 1.58 1.43 1.45 1.51 1.59 1.51 1.34 1.09 0.97 0.93
0.24 0.23 0.20 0.19 0.20 0.22 0.24 0.22 0.21 0.18 0.17 0.20 0.22 0.24 0.28 0.35 0.36 0.40 0.45 0.52 0.61 0.66 0.72 0.86 1.04 1.31 1.55 1.56 1.53 1.46 1.36 1.34 1.43 1.54 1.70 1.49 1.08 0.80

GEFSNE_prec_meanprecacc_156.txt.gz
Total_Precipitation_Accumulation
0.23 0.23 0.25 0.23 0.23 0.24 0.29 0.41 0.57 0.44 0.15 0.11 0.19 0.20 0.20 0.23 0.29 0.32 0.30 0.31 0.38 0.42 0.45 0.53 0.64 0.73 0.85 1.10 1.60 2.27 2.80 3.15 3.08 2.74 2.42 2.33 2.58 2.93
0.31 0.30 0.30 0.30 0.29 0.28 0.29 0.32 0.44 0.59 0.40 0.12 0.16 0.23 0.27 0.27 0.31 0.32 0.31 0.34 0.35 0.40 0.44 0.48 0.56 0.65 0.77 0.91 1.10 1.55 2.16 2.65 3.00 3.12 3.01 2.83 2.78 3.00
0.36 0.38 0.39 0.39 0.39 0.37 0.36 0.37 0.39 0.53 0.55 0.18 0.10 0.17 0.28 0.33 0.33 0.30 0.29 0.28 0.26 0.32 0.41 0.46 0.53 0.59 0.66 0.78 0.92 1.15 1.61 2.10 2.53 2.98 3.27 3.24 3.08 3.01
0.40 0.44 0.45 0.45 0.47 0.47 0.48 0.46 0.44 0.48 0.58 0.39 0.16 0.16 0.24 0.32 0.37 0.36 0.29 0.26 0.24 0.26 0.36 0.47 0.53 0.59 0.63 0.69 0.78 0.94 1.22 1.68 2.05 2.35 2.76 3.01 3.04 3.14
0.38 0.43 0.48 0.54 0.57 0.56 0.56 0.55 0.50 0.44 0.47 0.48 0.29 0.20 0.23 0.29 0.35 0.38 0.35 0.33 0.28 0.28 0.32 0.42 0.52 0.57 0.62 0.67 0.72 0.79 0.89 1.12 1.53 2.00 2.42 2.78 2.84 2.85
0.38 0.41 0.48 0.56 0.64 0.70 0.75 0.66 0.59 0.60 0.58 0.56 0.42 0.31 0.28 0.30 0.42 0.46 0.45 0.42 0.41 0.35 0.33 0.35 0.44 0.53 0.56 0.57 0.60 0.66 0.75 0.95 1.28 1.69 2.04 2.41 2.63 2.61
0.42 0.44 0.48 0.60 0.78 0.95 1.05 0.99 0.93 0.93 0.85 0.80 0.67 0.51 0.43 0.45 0.53 0.53 0.56 0.50 0.50 0.48 0.43 0.35 0.34 0.36 0.40 0.47 0.53 0.57 0.67 0.79 0.95 1.25 1.65 2.00 2.33 2.55
0.48 0.44 0.42 0.48 0.57 0.72 0.92 0.99 1.04 1.11 1.12 1.07 0.98 0.84 0.61 0.53 0.58 0.71 0.80 0.80 0.69 0.50 0.46 0.41 0.40 0.42 0.38 0.40 0.48 0.53 0.58 0.67 0.81 1.00 1.25 1.54 1.84 2.23
0.40 0.36 0.35 0.35 0.38 0.38 0.47 0.53 0.62 0.76 0.96 1.11 1.20 0.99 0.77 0.67 0.78 0.95 0.99 0.97 0.78 0.63 0.65 0.67 0.52 0.49 0.45 0.49 0.56 0.53 0.58 0.67 0.75 0.84 1.02 1.26 1.50 1.80
0.31 0.34 0.35 0.33 0.32 0.37 0.44 0.46 0.43 0.47 0.65 0.88 1.03 0.94 0.86 0.84 0.98 1.20 1.35 1.40 1.13 0.85 0.83 0.98 0.74 0.61 0.54 0.52 0.59 0.58 0.57 0.62 0.69 0.78 0.89 1.03 1.24 1.49
0.28 0.38 0.43 0.39 0.38 0.49 0.63 0.61 0.46 0.37 0.43 0.70 0.95 1.00 1.03 1.21 1.39 1.71 1.95 2.00 1.74 1.23 1.04 1.14 0.98 0.79 0.69 0.61 0.61 0.66 0.65 0.63 0.66 0.75 0.85 0.94 1.06 1.29
0.28 0.38 0.57 0.55 0.52 0.56 0.65 0.65 0.59 0.40 0.36 0.41 0.50 0.61 0.68 0.74 1.01 1.37 1.59 1.74 1.72 1.55 1.21 1.17 1.15 1.07 1.07 0.79 0.63 0.57 0.59 0.68 0.72 0.76 0.84 0.93 1.03 1.10
0.36 0.43 0.55 0.54 0.53 0.55 0.61 0.61 0.60 0.57 0.55 0.54 0.48 0.43 0.46 0.56 0.70 0.97 1.20 1.38 1.55 1.50 1.21 1.27 1.36 1.25 1.18 0.96 0.72 0.62 0.54 0.52 0.56 0.68 0.81 0.94 1.07 1.15
0.41 0.36 0.42 0.45 0.50 0.53 0.52 0.53 0.56 0.60 0.58 0.50 0.40 0.33 0.33 0.40 0.51 0.69 0.94 1.09 1.19 1.24 1.13 1.26 1.47 1.32 1.21 0.99 0.77 0.73 0.66 0.60 0.53 0.55 0.62 0.89 1.06 1.18
0.42 0.55 0.49 0.43 0.40 0.34 0.30 0.36 0.39 0.40 0.44 0.41 0.31 0.22 0.21 0.27 0.36 0.50 0.67 0.86 0.98 1.02 1.06 1.10 1.23 1.27 1.32 1.16 0.79 0.70 0.77 0.78 0.68 0.61 0.62 0.70 0.83 0.96
0.34 0.41 0.40 0.30 0.23 0.17 0.15 0.17 0.20 0.26 0.34 0.37 0.28 0.20 0.18 0.22 0.31 0.41 0.58 0.73 0.93 0.96 0.96 1.04 1.14 1.34 1.46 1.19 0.95 0.80 0.76 0.88 0.85 0.73 0.67 0.67 0.72 0.77
0.55 0.52 0.41 0.30 0.25 0.19 0.14 0.11 0.12 0.19 0.26 0.27 0.27 0.25 0.23 0.24 0.26 0.33 0.52 0.69 0.87 0.90 0.94 1.08 1.22 1.36 1.48 1.45 1.35 1.04 0.86 0.84 0.87 0.86 0.78 0.79 0.81 0.80
0.58 0.55 0.36 0.26 0.23 0.20 0.18 0.15 0.13 0.15 0.17 0.22 0.25 0.26 0.27 0.28 0.28 0.32 0.47 0.64 0.74 0.77 0.85 1.00 1.26 1.58 1.79 1.79 1.52 1.25 1.02 0.94 1.00 1.04 0.94 0.87 0.88 0.83
0.41 0.33 0.23 0.19 0.18 0.17 0.17 0.17 0.15 0.11 0.15 0.21 0.25 0.26 0.29 0.33 0.34 0.37 0.44 0.56 0.66 0.71 0.79 0.92 1.19 1.55 1.72 1.66 1.60 1.38 1.15 1.00 1.08 1.24 1.17 0.92 0.81 0.76
0.21 0.21 0.18 0.16 0.17 0.17 0.17 0.17 0.16 0.15 0.17 0.21 0.23 0.25 0.30 0.38 0.41 0.39 0.42 0.55 0.65 0.73 0.82 0.94 1.14 1.34 1.47 1.30 1.29 1.40 1.31 1.15 1.12 1.26 1.25 1.04 0.94 0.99
0.15 0.16 0.16 0.18 0.19 0.19 0.18 0.17 0.18 0.19 0.18 0.20 0.22 0.23 0.27 0.38 0.41 0.36 0.40 0.51 0.71 0.82 0.85 0.88 1.02 1.22 1.42 1.49 1.48 1.44 1.45 1.41 1.25 1.20 1.16 1.11 1.08 1.10
0.18 0.19 0.17 0.18 0.20 0.21 0.22 0.21 0.21 0.18 0.17 0.20 0.21 0.23 0.27 0.37 0.40 0.38 0.44 0.54 0.64 0.72 0.77 0.83 0.97 1.28 1.65 1.75 1.59 1.43 1.46 1.52 1.60 1.51 1.35 1.11 0.99 0.96
0.24 0.24 0.20 0.19 0.20 0.22 0.24 0.23 0.21 0.19 0.17 0.21 0.23 0.25 0.29 0.36 0.37 0.42 0.46 0.53 0.62 0.67 0.73 0.87 1.05 1.32 1.56 1.57 1.54 1.46 1.36 1.35 1.44 1.55 1.71 1.49 1.09 0.82